Regional Weather Roundup
Issued by NWS Sioux Falls, SD

Home | Current Version | Previous Version | Text Only | Print | Product List | Glossary Off
Versions: 1 2 3 4 5 6 7 8 9 10 11 12 13 14 15 16 17 18 19 20 21 22 23 24 25 26 27 28 29 30 31 32 33 34 35 36 37 38 39 40 41 42 43 44 45 46 47 48 49 50

000
ASUS43 KFSD 312310
RWRFSD

WEATHER ROUNDUP FOR SE SOUTH DAKOTA/SW MINNESOTA/NW IOWA
NATIONAL WEATHER SERVICE SIOUX FALLS SD
600 PM CDT MON AUG 31 2015

NOTE: "FAIR" INDICATES FEW OR NO CLOUDS BELOW 12,000 FEET WITH NO
SIGNIFICANT WEATHER AND OR OBSTRUCTIONS TO VISIBILITY.


SDZ038>040-050-052>070-010000-
SOUTHEAST SOUTH DAKOTA

CITY           SKY/WX    TMP DP  RH WIND       PRES   REMARKS
BROOKINGS      SUNNY     82  70  65 S9        29.89S
CHAMBERLAIN    CLOUDY    78  65  63 NE7       29.87F
HURON          PTSUNNY   78  66  66 NE7       29.84F HAZE
MADISON        FAIR      82  70  65 SW8       29.88F
MITCHELL       SUNNY     83  67  58 N8        29.86R
SIOUX FALLS    MOSUNNY   82  69  64 S13       29.88R
WINNER         FAIR      78  62  57 NW10      29.90F
YANKTON        SUNNY     84  70  61 S13       29.85S
$$

MNZ071-072-080-081-089-090-097-098-010000-
SOUTHWEST MINNESOTA

CITY           SKY/WX    TMP DP  RH WIND       PRES   REMARKS
FAIRMONT       MOSUNNY   82  66  57 S10       29.91S
JACKSON        SUNNY     81  68  65 S13       29.92S
LUVERNE        SUNNY     82  68  61 S9G17     29.90R
MARSHALL       SUNNY     82  66  57 SW14      29.88S
MONTEVIDEO     PTSUNNY   84  70  61 W9        29.87R
PIPESTONE      SUNNY     81  70  69 SW10      29.90S
REDWOOD FALLS  SUNNY     83  67  58 S14       29.86S
TRACY          SUNNY     82  69  65 S10G17    29.89R
WINDOM         SUNNY     82  66  57 S12G18    29.90S
WORTHINGTON    SUNNY     79  66  65 S14       29.90F
$$

IAZ001>003-012>014-020>022-031-032-NEZ013-014-SDZ071-010000-
NORTHWEST IOWA

CITY           SKY/WX    TMP DP  RH WIND       PRES   REMARKS
CHEROKEE       MOSUNNY   81  70  69 S10       29.92R
DENISON        SUNNY     81  70  69 S7G14     29.91S
ESTHERVILLE    SUNNY     80  68  66 S12       29.92R
LE MARS        SUNNY     81  70  69 S13G18    29.90S
ORANGE CITY    SUNNY     81  72  74 S12       29.91R
SHELDON        SUNNY     81  70  69 S8        29.90R
SIOUX CITY     SUNNY     83  69  62 S12       29.89S
SPENCER        SUNNY     81  66  60 S10       29.92R
STORM LAKE     MOSUNNY   79  70  73 S9        29.94S
$$

ABBREVIATIONS USED IN REMARKS
   TC - TEMPERATURE IN CELSIUS
  WCI - WIND CHILL INDEX
   HX - HEAT INDEX
  VSB - VISIBILITY




USA.gov is the U.S. government's official web portal to all federal, state and local government web resources and services.